Starlink 5012

operational
NORAD ID: 53918 Int'l Des: 2022-119 Owner: SPXS Country: US Constellation: starlink
LEOCIRCULAR

Über Starlink 5012

Beschreibung wird geladen...

Live-Position

3D-Globus wird geladen...

Nächste Überflüge

Höhenverlauf

Altitude vs Time

uPlot chart will show altitude changes over time

Zweizeiliger Elementsatz

1 53918U 22119AJ 25307.88291953 .00000428 00000-0 44961-4 0 9995
2 53918 53.2162 158.7962 0001339 92.5907 267.5238 15.08840299172833
Epoch: 3. Nov. 2025 • Age: 21 hours

Aktueller Status

Höhe 543.7 km
Geschwindigkeit 7.60 km/s
Subsatellitenpunkt 45.48°N, 34.16°W
Startdatum 24. Sept. 2022
Alter 3.1 years
Typ internet

Technische Details

Klassifizierung Payload
Masse 305.00 kg
Trockenmasse 290.00 kg
Gesamtmasse 305.00 kg
Länge 0.20 m
Durchmesser 2.80 m
Spannweite 9.00 m
Form Box + pan
Hersteller SPXS
Bus-Typ Starlink
Phasenstatus In Orbit
Besitzer/Staat SPXS/US

Große Konstellationen

Loading constellations...